Home   Weather   Mechelen   Past weeks

Flag for Belgium Past Weather in Mechelen, Belgium — Yesterday and Last 2 Weeks

Now
36 °F

Clear.


Feels Like: 33 °F
Forecast: 24 / 33 °F
Wind: 3 mph from East

Location: Brussels National Airport

Current Time: Jan 20, 2017 at 7:27:38 pm

Latest Report: Jan 20, 2017 at 6:50 pm


Visibility: 10 mi

Pressure: 30.48 "Hg

Humidity: 41%

Dew Point: 14 °F

Location of MechelenLocation

Past Weather in Mechelen — Graph

°F

Mechelen Temperature Yesterday

Maximum temperature yesterday: 37 °F (at 2:50 pm)
Minimum temperature yesterday: 21 °F (at 8:20 am)
Average temperature yesterday: 28 °F

High & Low Weather Summary for the Past Weeks

 TemperatureHumidityPressure
High48 °F (Jan 11, 1:20 pm)100% (Jan 7, 3:20 pm)30.72 "Hg (Jan 7, 3:20 pm)
Low21 °F (Jan 19, 8:20 am)33% (Jan 20, 3:20 pm)28.94 "Hg (Jan 12, 10:50 pm)
Average34 °F87%30.23 "Hg
* Reported Jan 5 6:20 pm — Jan 20 6:20 pm, Mechelen, Weather by CustomWeather, © 2017

Note: Actual official high and low records may vary slightly from our data, if they occured in-between our weather recording intervals... More about our weather records

Advertising

Mechelen Weather History for the Previous 24 Hours

Scroll right to see more
 ConditionsComfort  
Time TempWeatherWind HumidityBarometerVisibility
6:20 pm
Fri, Jan 20
36 °FClear.2 mph41%30.48 "Hg10 mi
5:50 pm37 °FClear.3 mph38%30.48 "Hg10 mi
5:20 pm37 °FClear.5 mph38%30.48 "Hg10 mi
4:50 pm39 °FSunny.7 mph39%30.48 "Hg10 mi
4:20 pm39 °FSunny.7 mph42%30.48 "Hg10 mi
3:50 pm41 °FSunny.7 mph33%30.48 "Hg10 mi
3:20 pm41 °FSunny.5 mph33%30.48 "Hg10 mi
2:50 pm39 °FPassing clouds.7 mph39%30.48 "HgN/A
2:20 pm39 °FSunny.7 mph36%30.48 "Hg10 mi
1:50 pm37 °FSunny.8 mph41%30.51 "Hg10 mi
1:20 pm37 °FPassing clouds.7 mph41%30.51 "HgN/A
12:50 pm36 °FSunny.7 mph48%30.51 "Hg10 mi
12:20 pm34 °FPassing clouds.7 mph51%30.51 "HgN/A
11:50 am32 °FSunny.6 mph60%30.54 "Hg10 mi
11:20 am30 °FSunny.5 mph64%30.54 "Hg10 mi
10:50 am30 °FSunny.3 mph69%30.54 "Hg10 mi
10:20 am28 °FSunny.3 mph74%30.54 "Hg10 mi
9:50 am25 °FSunny.3 mph86%30.54 "Hg10 mi
9:20 am23 °FSunny.2 mph93%30.54 "Hg10 mi
8:50 am23 °FSunny.3 mph93%30.54 "Hg10 mi
8:20 am23 °FClear.2 mph93%30.54 "Hg10 mi
7:50 am23 °FClear.2 mph93%30.54 "Hg10 mi
7:20 am23 °FClear.1 mph93%30.54 "Hg10 mi
6:50 am23 °FClear.3 mph93%30.54 "Hg10 mi
6:20 am23 °FClear.3 mph93%30.54 "Hg10 mi
5:50 am23 °FClear.1 mph93%30.54 "Hg10 mi
5:20 am25 °FClear.2 mph86%30.54 "Hg10 mi
4:50 am25 °FClear.3 mph86%30.54 "Hg10 mi
4:20 am25 °FClear.2 mph86%30.54 "Hg10 mi
3:50 am25 °FClear.1 mph86%30.54 "Hg10 mi
3:20 am25 °FClear.3 mph86%30.54 "Hg10 mi
2:50 am25 °FClear.3 mph86%30.54 "Hg10 mi
2:20 am25 °FClear.2 mph86%30.54 "Hg10 mi
1:50 am25 °FClear.3 mph86%30.54 "Hg10 mi
1:20 am25 °FClear.3 mph86%30.57 "Hg10 mi
12:50 am25 °FClear.3 mph86%30.57 "Hg10 mi
12:20 am25 °FClear.5 mph86%30.57 "Hg10 mi
11:50 pm
Thu, Jan 19
28 °FClear.2 mph74%30.57 "Hg10 mi
11:20 pm28 °FClear.2 mph74%30.57 "Hg10 mi
10:50 pm28 °FClear.2 mph74%30.57 "Hg10 mi
10:20 pm28 °FClear.2 mph80%30.60 "Hg10 mi
9:50 pm30 °FClear.2 mph69%30.60 "Hg10 mi
9:20 pm30 °FClear.3 mph75%30.60 "Hg10 mi
8:50 pm30 °FClear.3 mph69%30.60 "Hg10 mi
8:20 pm30 °FClear.2 mph69%30.60 "Hg10 mi
7:50 pm30 °FClear.3 mph69%30.60 "Hg10 mi
7:20 pm32 °FClear.3 mph60%30.60 "Hg10 mi
Weather by CustomWeather, © 2017

See weather overviewHow to use our weather pages